Regional Weather Roundup
Issued by NWS Newport/Morehead, NC

Current Version | Previous Version | Text Only | Print | Product List | Glossary Off
Versions: 1 2 3 4 5 6 7 8 9 10 11 12 13 14 15 16 17 18 19 20 21 22 23 24 25 26 27 28 29 30 31 32 33 34 35 36 37 38 39 40 41 42 43 44 45 46 47 48 49 50
000 ASUS42 KMHX 060425 RWRMHX WEATHER ROUNDUP FOR EASTERN NORTH CAROLINA NATIONAL WEATHER SERVICE NEWPORT/MOREHEAD CITY NC 1100 PM EST MON DEC 05 2016 NOTE: "FAIR" INDICATES FEW OR NO CLOUDS BELOW 12,000 FEET WITH NO SIGNIFICANT WEATHER AND/OR OBSTRUCTIONS TO VISIBILITY NCZ015>017-031-032-045>047-102-103-060500- NORTH COAST CITY SKY/WX TMP DP RH WIND PRES REMARKS EDENTON MOCLDY 47 44 87 CALM 30.12S ELIZABETH CITY CLOUDY 48 42 80 CALM 30.11R KITTY HAWK CLOUDY 52 47 84 N3 30.08R MANTEO CLOUDY 51 45 80 NE5 30.08F $$ NCZ045>047-081-094-103-104-060500- CENTRAL COAST CITY SKY/WX TMP DP RH WIND PRES REMARKS FRISCO MOCLDY 53 48 83 VRB6 30.07R $$ NCZ095-097-098-100-101-060500- SOUTHERN COAST CITY SKY/WX TMP DP RH WIND PRES REMARKS BEAUFORT RAIN 50 47 89 VRB7 30.07F FOG CEDAR ISLAND NOT AVBL JACKSONVILLE CLOUDY 51 47 86 E14 30.05F PINEY ISLAND LGT RAIN N/A N/A N/A NE7 30.09S WILMINGTON LGT RAIN 50 48 93 NE13 30.03F $$ NCZ011>013-027>030-043-044-078>080-089-090>093-098-060500- COASTAL PLAIN CITY SKY/WX TMP DP RH WIND PRES REMARKS AHOSKIE MOCLDY 45 43 93 CALM 30.11S CLINTON DRIZZLE 52 47 84 E7 30.05F ELIZABETHTOWN CLOUDY 52 48 86 E3 30.05R GOLDSBORO CLOUDY 51 50 96 E3 30.07S GREENVILLE CLOUDY 50 45 81 E6 30.09F HAVELOCK LGT RAIN 51 43 74 N8 30.09F KENANSVILLE CLOUDY 52 45 76 E6 30.06S KINSTON N/A 51 44 79 NE5 30.10R NEW BERN LGT RAIN 50 44 80 E5 30.08F RICHLANDS CLOUDY 50 48 93 NE9 30.06F ROCKY MOUNT CLOUDY 49 46 90 NE5 30.09F WASHINGTON CLOUDY 47 42 81 E3 30.09F WHITEVILLE NOT AVBL $$ AMZ130-135-150-152-154-156-158-170-250-252-270-ANZ085-086-088-633-658-670-060500- MARINE OBSERVATIONS STATION/POSITION TIME TEMP WIND PRES WAVE SWELL AIR SEA DIR/SP/G HT/PER HT/PER (UTC) (F) (DEG/KT/KT) (MB) (FT/S) (FT/S) CHESAPEAKE LIGHT NOT AVBL 64 E VA BEACH 0350 54 60 20/ 16/ 19 1017.8 6/ 6 3/ 8 DUCK 0400 53 54 40/ 12/ 13 1018.2 2 E DUCK NOT AVBL OREGON INLET 0400 57 30/ 8/ 12 1018.5 13E OREGON INLT NOT AVBL HATTERAS CG 0400 53 60 10/ 11/ 13 1018.3 DIAMOND BUOY 0350 59 77 10/ 14/ 16 1017.8 5/ 9 3/ 9 CAPE LOOKOUT 0400 51 10/ 13/ 16 1017.5 BEAUFORT LAB 0400 50 56 30/ 8/ 11 1016.9 30 SE NEW RVR IN 0408 54 70 50/ 19/ 27 1015.5 30 SE NEW RVR IN NOT AVBL 27 SE WRIGHTSVLE 0408 59 68 70/ 19/ 27 1015.4 5 SE WRIGHTSVLE 0408 52 62 70/ 14/ 33 1015.6 225 S CAPE HAT 0350 73 74 230/ 12/ 14 1015.1 5/ 7 5/ 7 41 SE CHARLESTON 0350 71 74 80/ 12/ 14 1013.3 4/ 5 2/ 6 $$

USA.gov is the U.S. government's official web portal to all federal, state and local government web resources and services.